{"data":{"norad_id":38342,"intl_designator":"2012-026A","name":"NIMIQ 6","alt_names":[],"object_type":"PAYLOAD","status":"ACTIVE","operator":null,"country":"CA","launch_date":"2012-05-17","launch_site_code":"TYMSC","launch_vehicle":null,"mission":null,"orbit_class":"UNKNOWN","rcs_meters":14.093,"size_class":null,"mass_kg":null,"dimensions":null,"purposes":["comms"],"wikipedia_slug":null,"has_3d_model":false,"image_url":null,"decayed_at":null,"tle_current":{"epoch":"2026-09-20T04:02:18.789792Z","epoch_age_seconds":46854,"freshness":"FRESH","line1":"1 38342U 12026A   26263.16827303 -.00000178  00000+0  00000+0 0  9995","line2":"2 38342   0.0153 213.9818 0002876 322.5515 152.0210  1.00271594 51375","mean_motion":1.00271594,"eccentricity":0.0002876,"inclination_deg":0.0153,"raan_deg":213.9818,"arg_perigee_deg":322.5515,"mean_anomaly_deg":152.021,"bstar":0,"rev_number":5137,"period_min":1436.099639545,"perigee_km":35774.521913198,"apogee_km":35798.775097821,"semimajor_km":42164.785505509,"source":"CELESTRAK","updated_at":"2026-09-20T09:00:35.174857Z"}}}